Flag for U.S.A. Weather past 2 weeks in Fayetteville, North Carolina, U.S.A.

Now
47 °F

Sunny.


Feels Like: 45 °F
Forecast: 37 / 64 °F
Wind: 5 mph from South

Location: Fayetteville Regional Airport

Current Time: Mar 29, 2015 at 8:21:27 PM

Latest Report: Mar 29, 2015 at 7:53 PM


Visibility: 10 mi

Pressure: 30.29 "Hg

Humidity: 32%

Dew point: 18 °F

Location of FayettevilleLocation

Historic Weather in Fayetteville — Graph

°F

Fayetteville temperature yesterday

Maximum temperature yesterday: 51 °F (at 3:53 PM)
Minimum temperature yesterday: 37 °F (at 11:53 PM)
Average temperature yesterday: 44 °F

Past Weeks' High & Low Weather Summary

 TemperatureHumidityPressure
High85 °F (Mar 17, 3:53 PM)100% (Mar 26, 1:53 AM)30.45 "Hg (Mar 26, 1:53 AM)
Low29 °F (Mar 29, 3:53 AM)17% (Mar 29, 3:53 PM)29.62 "Hg (Mar 27, 5:53 AM)
Average56 °F63%30.04 "Hg
* Reported Mar 14 6:03 PM — Mar 29 6:53 PM, Fayetteville, Weather by CustomWeather, © 2015

Note: Actual official high and low records may vary slightly from our data, if they occured in-between our weather recording intervals... More about our weather records

Advertising

Fayetteville weather history for previous 24 hours

 ConditionsComfort  
Time TempWeatherWind HumidityBarometerVisibility
6:53 PM
Sun, Mar 29
51 °FSunny.7 mph20%30.29 "Hg10 mi
5:53 PM52 °FSunny.9 mph17%30.31 "Hg10 mi
4:53 PM51 °FSunny.No wind17%30.32 "Hg10 mi
3:53 PM51 °FSunny.7 mph17%30.34 "Hg10 mi
2:53 PM49 °FSunny.7 mph20%30.34 "Hg10 mi
1:53 PM47 °FSunny.6 mph20%30.38 "Hg10 mi
12:53 PM44 °FSunny.3 mph24%30.40 "Hg10 mi
11:53 AM43 °FSunny.8 mph27%30.43 "Hg10 mi
10:53 AM40 °FSunny.8 mph29%30.45 "Hg10 mi
9:53 AM38 °FSunny.13 mph33%30.44 "Hg10 mi
8:53 AM35 °FSunny.10 mph40%30.42 "Hg10 mi
7:53 AM31 °FClear.3 mph54%30.40 "Hg10 mi
6:53 AM29 °FClear.3 mph56%30.37 "Hg10 mi
5:53 AM30 °FClear.No wind54%30.35 "Hg10 mi
4:53 AM30 °FClear.6 mph56%30.32 "Hg10 mi
3:53 AM29 °FClear.6 mph56%30.30 "Hg10 mi
2:53 AM31 °FClear.8 mph52%30.29 "Hg10 mi
1:53 AM32 °FClear.6 mph50%30.29 "Hg10 mi
12:53 AM34 °FClear.8 mph46%30.27 "Hg10 mi
11:53 PM
Sat, Mar 28
37 °FClear.10 mph41%30.25 "Hg10 mi
10:53 PM39 °FClear.13 mph38%30.22 "Hg10 mi
9:53 PM41 °FClear.5 mph45%30.18 "Hg10 mi
8:53 PM39 °FClear.6 mph53%30.15 "Hg10 mi
Weather by CustomWeather, © 2015

See weather overviewHow to use our weather pages